Location: Newark
(42.9858°N, 0.6717°E)
Time: 04:26:10
(UTC+00:00)

Envisat - Visible Passes

Search period start: 02 December 2020 00:00
Search period end: 12 December 2020 00:00
Orbit: 764 x 766 km, 98.1° (Epoch: 01 December)

Date Brightness Start Highest point End Pass type
(mag) Time Alt. Az. Time Alt. Az. Time Alt. Az.
02 Dec 5.7 04:45:32 10° NE 04:49:05 19° E 04:52:36 10° SE visible
02 Dec 3.1 06:23:28 10° N 06:28:25 54° WNW 06:33:21 10° SSW visible
02 Dec 4.6 17:39:11 10° SSW 17:43:51 37° W 17:48:34 10° NNW visible
03 Dec 3.3 05:46:34 10° NNE 05:51:40 71° ESE 05:56:43 10° S visible
03 Dec 3.1 17:01:52 10° SSE 17:06:57 82° WSW 17:12:03 10° NNW visible
04 Dec 4.8 05:10:10 10° NNE 05:14:43 32° E 05:19:14 10° SSE visible
04 Dec 5.6 18:05:35 10° SW 18:09:28 22° W 18:13:22 10° NW visible
05 Dec 6.0 04:34:45 10° NE 04:37:34 15° E 04:40:22 10° ESE visible
05 Dec 3.0 06:12:00 10° N 06:17:04 68° WNW 06:22:05 10° SSW visible
05 Dec 4.1 17:27:32 10° S 17:32:25 47° W 17:37:19 10° NNW visible
06 Dec 3.7 05:35:15 10° NNE 05:40:15 56° E 05:45:14 10° S visible
06 Dec 3.0 16:50:29 10° SSE 16:55:34 79° ENE 17:00:40 10° N visible
06 Dec 6.2 18:33:06 10° WSW 18:35:11 12° W 18:37:15 10° WNW visible
07 Dec 5.2 04:59:02 10° NE 05:03:15 26° E 05:07:25 10° SSE visible
07 Dec 3.4 06:37:39 10° N 06:42:22 39° WNW 06:47:03 10° SW visible
07 Dec 5.2 17:53:42 10° SSW 17:57:59 27° W 18:02:18 10° NW visible
08 Dec 6.2 04:24:25 10° ENE 04:26:02 11° E 04:27:38 10° ESE visible
08 Dec 3.0 06:00:35 10° NNE 06:05:41 85° WNW 06:10:47 10° SSW visible
08 Dec 3.7 17:15:59 10° S 17:20:59 60° W 17:26:02 10° NNW visible
09 Dec 4.2 05:23:57 10° NNE 05:28:49 44° E 05:33:39 10° S visible
09 Dec 6.0 18:20:35 10° SW 18:23:39 16° W 18:26:43 10° NW visible
10 Dec 5.6 04:48:00 10° NE 04:51:45 20° E 04:55:28 10° SE visible
10 Dec 3.2 06:26:08 10° N 06:31:02 49° WNW 06:35:55 10° SW visible
10 Dec 4.8 17:41:55 10° SSW 17:46:30 34° W 17:51:08 10° NNW visible
11 Dec 3.2 05:49:12 10° NNE 05:54:18 77° ESE 05:59:23 10° S visible
11 Dec 3.3 17:04:30 10° S 17:09:34 76° WSW 17:14:41 10° NNW visible
